BM3FFG-1 Weather Reports


Display with metric or nautical units.
time (UTC)temp
F
wind
direction
speed
MPH
gust
MPH
rain 1hr
in
rain 24hr
in
rain mn
in
humidity
%
barometer
mb
20260505012943 79 0.0 0.0 0.00 0.00 0.00 80 967.5
20260505010943 79 0.0 0.0 0.00 0.00 0.00 79 967.5
20260505004943 79 0.0 0.0 0.00 0.00 0.00 79 967.4
20260505002942 79 0.0 0.0 0.00 0.00 0.00 78 967.3
20260505000943 79 0.0 0.0 0.00 0.00 0.00 78 967.1
20260504234942 79 0.0 0.0 0.00 0.00 0.00 78 967.0
20260504232943 79 0.0 0.0 0.00 0.00 0.00 77 967.0
20260504230942 79 0.0 0.0 0.00 0.00 0.00 78 966.7
20260504224943 79 0.0 0.0 0.00 0.00 0.00 77 966.7
20260504222943 79 0.0 0.0 0.00 0.00 0.00 77 966.6
20260504220943 79 0.0 0.0 0.00 0.00 0.00 78 966.5
20260504214943 79 0.0 0.0 0.00 0.00 0.00 78 966.4
20260504212943 80 0.0 0.0 0.00 0.00 0.00 78 966.4
20260504210943 80 0.0 0.0 0.00 0.00 0.00 78 966.2
20260504204942 80 0.0 0.0 0.00 0.00 0.00 77 966.2
20260504202943 80 0.0 0.0 0.00 0.00 0.00 77 966.0
20260504200943 80 0.0 0.0 0.00 0.00 0.00 76 965.9
20260504194943 80 0.0 0.0 0.00 0.00 0.00 76 965.9
20260504192943 80 0.0 0.0 0.00 0.00 0.00 76 965.8
20260504190943 80 0.0 0.0 0.00 0.00 0.00 77 965.8
20260504184943 80 0.0 0.0 0.00 0.00 0.00 77 965.9
20260504182943 80 0.0 0.0 0.00 0.00 0.00 77 966.0
20260504180943 80 0.0 0.0 0.00 0.00 0.00 76 966.3
20260504174943 80 0.0 0.0 0.00 0.00 0.00 76 966.3
20260504172943 80 0.0 0.0 0.00 0.00 0.00 75 966.4
20260504170943 80 0.0 0.0 0.00 0.00 0.00 75 966.5
20260504150943 80 0.0 0.0 0.00 0.00 0.00 72 967.4
20260504140943 81 0.0 0.0 0.00 0.00 0.00 72 967.4
20260504080942 84 0.0 0.0 0.00 0.00 0.00 67 965.0
20260504044943 85 0.0 0.0 0.00 0.00 0.00 66 965.3
20260504042943 86 0.0 0.0 0.00 0.00 0.00 67 965.3
20260504040943 85 0.0 0.0 0.00 0.00 0.00 69 965.2
20260504034943 85 0.0 0.0 0.00 0.00 0.00 70 965.5
20260504032942 84 0.0 0.0 0.00 0.00 0.00 71 965.6
20260504030943 85 0.0 0.0 0.00 0.00 0.00 69 965.8
20260504024942 84 0.0 0.0 0.00 0.00 0.00 70 965.7
20260504022943 84 0.0 0.0 0.00 0.00 0.00 67 965.9
20260504020943 84 0.0 0.0 0.00 0.00 0.00 69 965.8
20260504014943 83 0.0 0.0 0.00 0.00 0.00 69 966.0